Le nostre stazioni meteo in Italia

Pubblicità
Il mio iltempo24.it
Kielder Castle, Gran Bretagna (99186): Temperatura & dewpoint: 05.12.2018 01:00:00 - 11.12.2018 01:00:00 (GMT)Kielder Castle, Gran Bretagna (99186): Temperatura -20cm & Temperatura -100cm: 05.12.2018 01:00:00 - 11.12.2018 01:00:00 (GMT)Kielder Castle, Gran Bretagna (99186): precipitazioni: 05.12.2018 01:00:00 - 11.12.2018 01:00:00 (GMT)
Data & Tempo tt [°C] td [°C] tt -20cm [°C] tt -100cm [°C] rr [mm]
11.12.2018 01:00:00 -0,3 -0,3 - - 0,0
11.12.2018 00:00:00 -0,4 -0,4 - - 0,0
10.12.2018 23:00:00 -0,4 -0,4 - - 0,0
10.12.2018 22:00:00 -0,9 -0,9 - - 0,0
10.12.2018 21:00:00 -0,3 -0,3 - - 0,0
10.12.2018 20:00:00 -0,3 -0,3 - - 0,0
10.12.2018 19:00:00 -0,3 -0,3 - - 0,0
10.12.2018 18:00:00 -0,6 -0,6 - - 0,0
10.12.2018 17:00:00 -1,0 -1,2 - - 0,0
10.12.2018 16:00:00 -0,8 -1,1 - - 0,0
10.12.2018 15:00:00 0,3 0,0 - - 0,0
10.12.2018 14:00:00 1,7 1,1 - - 0,0
10.12.2018 13:00:00 2,1 1,9 - - 0,0
10.12.2018 12:00:00 0,2 0,1 - - 0,2
10.12.2018 11:00:00 -0,7 -0,9 - - 0,0
10.12.2018 10:00:00 -1,9 -1,9 - - 0,0
10.12.2018 09:00:00 -2,4 -2,4 4,7 6,9 0,0
10.12.2018 08:00:00 -2,7 -2,8 - - 0,0
10.12.2018 07:00:00 -2,7 -2,8 - - 0,0
10.12.2018 06:00:00 -2,4 -2,5 - - 0,0
10.12.2018 05:00:00 -2,3 -2,3 - - 0,0
10.12.2018 04:00:00 -2,2 -2,2 - - 0,0
10.12.2018 03:00:00 -2,0 -2,0 - - 0,0
10.12.2018 02:00:00 -1,6 -1,6 - - 0,0
10.12.2018 01:00:00 -1,4 -1,4 - - 0,0
10.12.2018 00:00:00 -1,1 -1,2 - - 0,0
09.12.2018 23:00:00 -0,8 -0,8 - - 0,0
09.12.2018 22:00:00 -1,0 -1,1 - - 0,0
09.12.2018 21:00:00 -0,9 -0,9 - - 0,0
09.12.2018 20:00:00 -0,6 -0,7 - - 0,0
09.12.2018 19:00:00 -0,4 -0,6 - - 0,0
09.12.2018 18:00:00 0,2 0,0 - - 0,0
09.12.2018 17:00:00 0,3 -0,2 - - 0,0
09.12.2018 16:00:00 2,2 0,9 - - 0,0
09.12.2018 15:00:00 4,1 1,0 - - 0,0
09.12.2018 14:00:00 4,6 1,5 - - 0,0
09.12.2018 13:00:00 5,4 1,9 - - 0,0
09.12.2018 12:00:00 4,6 2,1 - - 0,0
09.12.2018 11:00:00 3,4 2,4 - - 0,2
09.12.2018 10:00:00 0,6 0,6 - - 0,0
09.12.2018 09:00:00 -0,1 -0,1 5,7 6,7 0,0
09.12.2018 08:00:00 0,8 0,7 - - 0,0
09.12.2018 07:00:00 0,9 0,7 - - 0,0
09.12.2018 06:00:00 1,8 1,6 - - 0,0
09.12.2018 05:00:00 2,7 2,7 - - 0,0
09.12.2018 04:00:00 2,8 2,8 - - 0,0
09.12.2018 03:00:00 2,1 2,0 - - 0,0
09.12.2018 02:00:00 2,4 2,2 - - 0,0
09.12.2018 01:00:00 3,5 3,3 - - 0,0
09.12.2018 00:00:00 4,1 3,7 - - 0,0
08.12.2018 23:00:00 4,1 4,0 - - 0,0
08.12.2018 22:00:00 4,2 3,7 - - 0,2
08.12.2018 21:00:00 5,5 4,4 - - 0,0
08.12.2018 20:00:00 5,6 5,3 - - 0,0
08.12.2018 19:00:00 5,0 4,6 - - 1,0
08.12.2018 18:00:00 5,2 4,8 - - 0,0
08.12.2018 17:00:00 4,3 4,0 - - 0,2
08.12.2018 16:00:00 4,4 3,9 - - 1,0
08.12.2018 15:00:00 4,4 3,6 - - 1,0
08.12.2018 14:00:00 6,1 5,1 - - 0,4
08.12.2018 13:00:00 6,7 5,2 - - 0,0
08.12.2018 12:00:00 6,4 5,0 - - 0,2
08.12.2018 11:00:00 6,8 4,1 - - 0,0
08.12.2018 10:00:00 6,8 4,0 - - 0,2
08.12.2018 09:00:00 7,0 4,6 5,7 6,9 0,0
08.12.2018 08:00:00 7,1 5,1 - - 0,0
08.12.2018 07:00:00 7,5 4,8 - - 0,0
08.12.2018 06:00:00 7,4 5,0 - - 0,2
08.12.2018 05:00:00 7,0 5,1 - - 0,0
08.12.2018 04:00:00 6,9 5,0 - - 0,0
08.12.2018 03:00:00 7,0 4,9 - - 0,0
08.12.2018 02:00:00 6,8 5,8 - - 0,8
08.12.2018 01:00:00 6,6 6,0 - - 1,4
08.12.2018 00:00:00 6,5 5,4 - - 0,2
07.12.2018 23:00:00 6,2 5,0 - - 0,2
07.12.2018 22:00:00 5,9 4,2 - - 0,0
07.12.2018 21:00:00 5,7 4,0 - - 0,0
07.12.2018 20:00:00 5,4 4,1 - - 0,4
07.12.2018 19:00:00 5,0 3,7 - - 0,6
07.12.2018 18:00:00 4,9 2,8 - - 0,0
07.12.2018 17:00:00 4,6 2,2 - - 0,0
07.12.2018 16:00:00 4,5 1,9 - - 0,0
07.12.2018 15:00:00 4,7 1,8 - - 0,0
07.12.2018 14:00:00 4,9 1,8 - - 0,0
07.12.2018 13:00:00 5,0 2,4 - - 0,0
07.12.2018 12:00:00 5,1 2,5 - - 0,0
07.12.2018 11:00:00 5,0 2,7 - - 0,0
07.12.2018 10:00:00 5,0 3,1 - - 0,0
07.12.2018 09:00:00 5,4 3,7 5,4 6,7 0,0
07.12.2018 08:00:00 6,3 4,5 - - 0,0
07.12.2018 07:00:00 8,8 7,9 - - 0,2
07.12.2018 06:00:00 9,8 9,2 - - 2,6
07.12.2018 05:00:00 9,8 9,8 - - 4,8
07.12.2018 04:00:00 9,0 9,0 - - 4,2
07.12.2018 03:00:00 7,3 7,3 - - 2,0
07.12.2018 02:00:00 6,2 6,2 - - 0,8
07.12.2018 01:00:00 6,0 6,0 - - 0,2
07.12.2018 00:00:00 5,9 5,9 - - 0,0
06.12.2018 23:00:00 5,9 5,9 - - 0,0
06.12.2018 22:00:00 5,0 5,0 - - 0,0
06.12.2018 21:00:00 5,5 5,3 - - 0,0
06.12.2018 20:00:00 5,7 5,0 - - 0,0
06.12.2018 19:00:00 7,7 6,3 - - 0,0
06.12.2018 18:00:00 8,3 7,3 - - 0,0
06.12.2018 17:00:00 8,7 7,3 - - 0,2
06.12.2018 16:00:00 8,9 7,7 - - 0,0
06.12.2018 15:00:00 10,2 9,9 - - 0,2
06.12.2018 14:00:00 10,1 9,8 - - 0,2
06.12.2018 13:00:00 10,2 9,9 - - 0,4
06.12.2018 12:00:00 9,9 9,7 - - 1,0
06.12.2018 11:00:00 9,5 9,3 - - 0,8
06.12.2018 10:00:00 9,3 9,3 - - 1,0
06.12.2018 09:00:00 8,0 8,0 4,7 7,2 0,4
06.12.2018 08:00:00 6,5 6,5 - - 0,4
06.12.2018 07:00:00 4,6 4,6 - - 0,0
06.12.2018 06:00:00 4,6 4,6 - - 0,2
06.12.2018 05:00:00 4,8 4,8 - - 0,0
06.12.2018 04:00:00 4,7 4,7 - - 0,0
06.12.2018 03:00:00 4,0 4,0 - - 0,0
06.12.2018 02:00:00 3,6 3,6 - - 0,2
06.12.2018 01:00:00 2,8 2,8 - - 0,0
06.12.2018 00:00:00 2,3 2,3 - - 0,0
05.12.2018 23:00:00 2,0 2,0 - - 0,0
05.12.2018 22:00:00 1,2 1,2 - - 0,0
05.12.2018 21:00:00 1,8 1,8 - - 0,0
05.12.2018 20:00:00 2,1 2,1 - - 0,0
05.12.2018 19:00:00 2,0 2,0 - - 0,0
05.12.2018 18:00:00 1,9 1,9 - - 0,0
05.12.2018 17:00:00 2,0 1,9 - - 0,4
05.12.2018 16:00:00 2,6 2,6 - - 0,4
05.12.2018 15:00:00 3,5 3,3 - - 0,8
05.12.2018 14:00:00 3,1 3,0 - - 1,0
05.12.2018 13:00:00 2,8 2,8 - - 1,6
05.12.2018 12:00:00 2,0 2,0 - - 2,2
05.12.2018 11:00:00 1,1 1,1 - - 0,0
05.12.2018 10:00:00 -0,2 -0,2 - - 0,0
05.12.2018 09:00:00 -0,9 -0,9 4,7 7,2 0,0
05.12.2018 08:00:00 -1,8 -1,8 - - 0,0
05.12.2018 07:00:00 -2,5 -2,6 - - 0,0
05.12.2018 06:00:00 -3,1 -3,2 - - 0,0
05.12.2018 05:00:00 -3,3 -3,5 - - 0,0
05.12.2018 04:00:00 -2,9 -3,1 - - 0,0
05.12.2018 03:00:00 -2,2 -2,3 - - 0,0
05.12.2018 02:00:00 -1,9 -1,9 - - 0,0
05.12.2018 01:00:00 -1,7 -1,7 - - 0,0

tt = Temperatura
td = dewpoint
tt -20cm = Temperatura -20cm
tt -100cm = Temperatura -100cm
rr = precipitazioni

Stazioni seguenti

WeatherPro
AMSI
MeteoEarth